N2MWY Sayville NY US current weather conditions

sailwx.info

Wind from 331 at 1 knots gusting 5

Air temperature 1.1° C
Dewpoint -4.3° C

Last reported at 2019-Dec-07 08:04 UTC.
Time now 2019-Dec-07 09:09 UTC

Location: N 40°45' W 073°06'.
View on Google Maps.

See reports from other nearby stations

  
Tides and Currents Weather Stations Pressure Air Temp Water Temp Dewpoint Dewpoint Depression Visibility Wind Speed Wind Dir Waves Ship Positions
date/time (UTC)wind fromknots sea level pressurealtimeterstation pressurevisibilityair tempwater tempwave heightnotes
2019-Dec-07 08:04 331 1 gusting 5 1.1
2019-Dec-07 07:54 326 2 gusting 6 1.7
2019-Dec-07 07:49 279 2 gusting 6 1.7
2019-Dec-07 07:44 352 1 gusting 6 1.1
2019-Dec-07 07:39 315 1 gusting 6 1.7
2019-Dec-07 07:34 328 1 gusting 5 1.7
2019-Dec-07 07:28 337 1 gusting 6 1.7
2019-Dec-07 07:23 358 1 gusting 6 1.7
2019-Dec-07 07:18 306 1 gusting 6 1.7
2019-Dec-07 07:13 326 1 gusting 5 1.7
2019-Dec-07 07:08 332 1 gusting 6 1.7
2019-Dec-07 07:03 325 1 gusting 6 1.7
2019-Dec-07 06:58 342 1 gusting 6 1.7
2019-Dec-07 06:53 310 2 gusting 11 2.2
2019-Dec-07 06:48 333 2 gusting 11 2.2
2019-Dec-07 06:43 352 1 gusting 9 2.2
2019-Dec-07 06:38 014 0 gusting 5 1.7
2019-Dec-07 06:33 331 0 gusting 6 1.7
2019-Dec-07 06:28 037 0 gusting 6 1.7
2019-Dec-07 06:23 281 0 gusting 4 1.7
2019-Dec-07 06:18 302 0 gusting 6 2.2
2019-Dec-07 06:13 301 0 gusting 6 2.2
2019-Dec-07 06:07 309 1 gusting 5 2.8
2019-Dec-07 06:03 277 1 gusting 5 2.8
2019-Dec-07 05:57 228 0 gusting 3 2.8
2019-Dec-07 05:52 289 1 gusting 6 2.8
2019-Dec-07 05:47 352 1 gusting 6 2.8
2019-Dec-07 05:42 337 1 gusting 6 2.8
2019-Dec-07 05:37 298 1 gusting 6 3.3
2019-Dec-07 05:32 297 2 gusting 7 3.3
2019-Dec-07 05:27 307 2 gusting 9 3.3
2019-Dec-07 05:22 315 1 gusting 9 2.8
2019-Dec-07 05:17 316 1 gusting 5 2.8
2019-Dec-07 05:12 336 1 gusting 5 3.3
2019-Dec-07 05:07 327 1 gusting 5 3.3
2019-Dec-07 05:02 303 1 gusting 4 3.3
2019-Dec-07 04:57 335 1 gusting 7 3.3
2019-Dec-07 04:51 352 2 gusting 7 3.9
2019-Dec-07 04:46 323 2 gusting 6 3.9
2019-Dec-07 04:41 298 2 gusting 6 3.9
2019-Dec-07 04:36 299 2 gusting 6 4.4
2019-Dec-07 04:31 347 2 gusting 10 4.4
2019-Dec-07 04:26 006 2 gusting 10 4.4
2019-Dec-07 04:21 312 2 gusting 10 4.4
2019-Dec-07 04:16 318 3 gusting 10 4.4
2019-Dec-07 04:11 320 3 gusting 9 4.4
2019-Dec-07 04:06 320 3 gusting 8 4.4
2019-Dec-07 04:01 324 3 gusting 11 4.4
2019-Dec-07 03:56 319 2 gusting 11 4.4
2019-Dec-07 03:51 358 2 gusting 7 4.4
2019-Dec-07 03:46 329 3 gusting 7 5.0
2019-Dec-07 03:41 285 2 gusting 7 5.0
2019-Dec-07 03:36 317 2 gusting 6 5.0
2019-Dec-07 03:31 329 1 gusting 6 5.0
2019-Dec-07 03:26 314 1 gusting 10 5.0
2019-Dec-07 03:20 010 2 gusting 10 5.0
2019-Dec-07 03:15 318 1 gusting 6 5.0
2019-Dec-07 03:10 287 1 gusting 6 5.0
2019-Dec-07 03:05 279 3 gusting 6 5.6
2019-Dec-07 03:00 303 3 gusting 6 5.6
2019-Dec-07 02:55 261 1 gusting 6 5.6
2019-Dec-07 02:50 283 1 gusting 6 5.6
2019-Dec-07 02:45 309 1 gusting 6 5.6
2019-Dec-07 02:40 303 2 gusting 9 6.1
2019-Dec-07 02:35 300 3 gusting 9 6.7
2019-Dec-07 02:30 289 2 gusting 8 6.7
2019-Dec-07 02:25 279 2 gusting 7 6.7
2019-Dec-07 02:20 258 3 gusting 7 6.7
2019-Dec-07 02:14 267 4 gusting 10 7.2
2019-Dec-07 02:09 265 3 gusting 10 7.8
2019-Dec-07 02:04 285 1 gusting 10 7.8
2019-Dec-07 01:59 316 2 gusting 6 7.8
2019-Dec-07 01:54 306 3 gusting 6 8.3
2019-Dec-07 01:49 303 3 gusting 7 8.3
2019-Dec-07 01:44 254 3 gusting 7 8.3
2019-Dec-07 01:39 289 3 gusting 7 8.3
2019-Dec-07 01:34 317 3 gusting 7 8.9
2019-Dec-07 01:29 264 3 gusting 13 8.9
2019-Dec-07 01:24 265 4 gusting 13 8.9
2019-Dec-07 01:19 275 3 gusting 9 9.4
2019-Dec-07 01:14 287 3 gusting 7 8.9
2019-Dec-07 01:09 335 2 gusting 6 9.4
2019-Dec-07 01:04 282 1 gusting 5 9.4
2019-Dec-07 00:59 283 1 gusting 6 9.4
2019-Dec-07 00:54 260 1 gusting 6 9.4
2019-Dec-07 00:49 268 3 gusting 9 9.4
2019-Dec-07 00:44 289 3 gusting 9 9.4
2019-Dec-07 00:38 287 2 gusting 8 9.4
2019-Dec-07 00:33 256 2 gusting 5 9.4
2019-Dec-07 00:28 257 2 gusting 5 9.4
2019-Dec-07 00:23 258 2 gusting 6 9.4
2019-Dec-07 00:18 262 2 gusting 5 9.4
2019-Dec-07 00:13 276 2 gusting 6 9.4
2019-Dec-07 00:08 262 2 gusting 5 9.4
2019-Dec-07 00:03 246 1 gusting 4 9.4
2019-Dec-06 23:57 282 1 gusting 6 8.9
2019-Dec-06 23:52 266 1 gusting 6 8.9
2019-Dec-06 23:47 262 1 gusting 5 8.9
2019-Dec-06 23:42 277 1 gusting 4 8.9
2019-Dec-06 23:37 264 2 gusting 6 8.9
2019-Dec-06 23:32 246 2 gusting 6 8.9
2019-Dec-06 23:27 255 2 gusting 4 8.9
2019-Dec-06 23:21 237 1 gusting 5 8.9
2019-Dec-06 23:16 237 1 gusting 5 8.3
2019-Dec-06 23:11 262 1 gusting 5 8.3
2019-Dec-06 23:06 216 1 gusting 6 8.9
2019-Dec-06 23:01 291 1 gusting 6 8.3
2019-Dec-06 22:56 229 1 gusting 6 8.3
2019-Dec-06 22:51 247 1 gusting 3 8.3
2019-Dec-06 22:46 239 1 gusting 4 8.3
2019-Dec-06 22:41 239 1 gusting 4 8.3
2019-Dec-06 22:36 226 1 gusting 5 7.8
2019-Dec-06 22:31 245 1 gusting 5 7.8
2019-Dec-06 22:26 212 1 gusting 6 7.8
2019-Dec-06 22:21 258 1 gusting 6 7.8
2019-Dec-06 22:15 231 1 gusting 5 7.8
2019-Dec-06 22:10 241 2 gusting 5 7.8
2019-Dec-06 22:05 206 2 gusting 6 7.8
2019-Dec-06 22:00 221 2 gusting 6 7.8
2019-Dec-06 21:55 227 2 gusting 8 8.3
2019-Dec-06 21:50 175 2 gusting 8 8.3
2019-Dec-06 21:45 235 2 gusting 8 8.3
2019-Dec-06 21:40 227 2 gusting 6 8.3
2019-Dec-06 21:35 086 2 gusting 6 8.3
2019-Dec-06 21:30 240 2 gusting 6 8.3
2019-Dec-06 21:25 271 2 gusting 6 8.3
2019-Dec-06 21:20 244 1 gusting 6 8.3
2019-Dec-06 21:14 277 2 gusting 7 8.9
2019-Dec-06 21:09 208 2 gusting 7 8.9
2019-Dec-06 21:04 258 2 gusting 6 8.9
2019-Dec-06 20:59 241 2 gusting 6 8.9
2019-Dec-06 20:54 224 2 gusting 8 8.9
2019-Dec-06 20:49 167 2 gusting 8 8.9
2019-Dec-06 20:44 250 2 gusting 7 8.9
2019-Dec-06 20:39 212 2 gusting 7 8.9
2019-Dec-06 20:34 227 2 gusting 5 8.3
2019-Dec-06 20:29 238 2 gusting 5 8.3
2019-Dec-06 20:24 203 2 gusting 6 8.3
2019-Dec-06 20:19 234 1 gusting 6 8.3
2019-Dec-06 20:14 207 2 gusting 6 8.9
2019-Dec-06 20:09 221 2 gusting 6 8.9
2019-Dec-06 20:04 241 2 gusting 6 8.3
2019-Dec-06 19:59 222 2 gusting 6 8.3
2019-Dec-06 19:54 252 2 gusting 10 8.3
2019-Dec-06 19:49 287 2 gusting 10 8.3
2019-Dec-06 19:44 205 2 gusting 6 8.3
2019-Dec-06 19:39 212 2 gusting 6 8.3
2019-Dec-06 19:34 258 2 gusting 6 8.3
2019-Dec-06 19:29 239 2 gusting 7 8.3
2019-Dec-06 19:24 258 2 gusting 7 8.3
2019-Dec-06 19:19 227 2 gusting 6 8.3
2019-Dec-06 19:14 262 2 gusting 7 8.3
2019-Dec-06 19:09 231 2 gusting 7 8.9
2019-Dec-06 19:04 202 2 gusting 7 8.3
2019-Dec-06 18:59 252 2 gusting 7 8.3
2019-Dec-06 18:54 233 2 gusting 6 8.3
2019-Dec-06 18:49 256 2 gusting 6 8.3
2019-Dec-06 18:44 221 2 gusting 6 8.3
2019-Dec-06 18:39 207 1 gusting 6 8.3
2019-Dec-06 18:33 195 2 gusting 4 8.3
2019-Dec-06 18:28 214 2 gusting 4 8.3
2019-Dec-06 18:23 248 2 gusting 5 8.3
2019-Dec-06 18:18 231 2 gusting 11 8.3
2019-Dec-06 18:13 216 2 gusting 11 8.3
2019-Dec-06 18:08 201 1 gusting 6 8.3
2019-Dec-06 18:03 163 1 gusting 5 8.3
2019-Dec-06 17:58 284 2 gusting 9 7.8
2019-Dec-06 17:53 248 2 gusting 9 7.8
2019-Dec-06 17:48 191 1 gusting 5 7.8
2019-Dec-06 17:43 191 1 gusting 4 8.3
2019-Dec-06 17:38 261 1 gusting 4 7.8
2019-Dec-06 17:33 217 1 gusting 3 7.8
2019-Dec-06 17:28 158 1 gusting 5 7.8
2019-Dec-06 17:23 206 1 gusting 7 7.2
2019-Dec-06 17:18 146 2 gusting 7 7.2
2019-Dec-06 17:13 196 2 gusting 5 7.2
2019-Dec-06 17:08 117 1 gusting 4 7.2
2019-Dec-06 17:03 222 1 gusting 4 7.8
2019-Dec-06 16:58 231 1 gusting 4 7.8
2019-Dec-06 16:52 197 1 gusting 5 7.2
2019-Dec-06 16:47 203 1 gusting 5 7.2
2019-Dec-06 16:42 194 1 gusting 5 7.2
2019-Dec-06 16:37 232 1 gusting 5 7.8
2019-Dec-06 16:32 175 0 gusting 4 7.8
2019-Dec-06 16:27 258 1 gusting 6 7.2
2019-Dec-06 16:22 253 1 gusting 7 7.2
2019-Dec-06 16:17 200 1 gusting 7 7.2
2019-Dec-06 16:12 172 1 gusting 4 7.2
2019-Dec-06 16:07 231 1 gusting 5 7.2
2019-Dec-06 16:02 190 1 gusting 6 6.7
2019-Dec-06 15:57 221 1 gusting 6 6.7
2019-Dec-06 15:52 200 1 gusting 4 6.1
2019-Dec-06 15:47 258 0 gusting 3 6.7
2019-Dec-06 15:42 233 1 gusting 4 6.1
2019-Dec-06 15:37 224 1 gusting 4 6.1
2019-Dec-06 15:32 077 1 gusting 3 6.1
2019-Dec-06 15:27 217 1 gusting 4 5.6
2019-Dec-06 15:22 194 1 gusting 5 5.6
2019-Dec-06 15:17 285 1 gusting 5 5.6
2019-Dec-06 15:12 156 0 gusting 3 5.6
2019-Dec-06 15:07 152 1 gusting 3 5.6
2019-Dec-06 15:01 233 1 gusting 4 5.6
2019-Dec-06 14:56 219 1 gusting 4 5.6
2019-Dec-06 14:51 219 1 gusting 4 6.1
2019-Dec-06 14:46 152 0 gusting 3 6.1
2019-Dec-06 14:41 216 0 gusting 2 5.6
2019-Dec-06 14:36 212 1 gusting 2 5.6
2019-Dec-06 14:31 247 0 gusting 2 5.0
2019-Dec-06 14:26 244 0 gusting 3 5.0
2019-Dec-06 14:21 270 0 gusting 3 5.0
2019-Dec-06 14:16 221 0 gusting 2 5.0
2019-Dec-06 14:11 221 0 gusting 2 4.4
2019-Dec-06 14:06 198 0 gusting 2 3.9
2019-Dec-06 14:01 249 2.8
2019-Dec-06 13:56 231 2.8
2019-Dec-06 13:50 231 2.8
2019-Dec-06 13:45 255 2.8
2019-Dec-06 13:40 293 2.2
2019-Dec-06 13:35 293 2.2
2019-Dec-06 13:30 293 1.7
2019-Dec-06 13:25 293 1.1
2019-Dec-06 13:20 293 1.1
2019-Dec-06 13:15 293 0.6
2019-Dec-06 13:10 293 0.6
2019-Dec-06 13:04 293 0.6
2019-Dec-06 12:59 293 -0.0
2019-Dec-06 12:54 293 -0.0
2019-Dec-06 12:49 293 -0.0
2019-Dec-06 12:44 293 -0.0
2019-Dec-06 12:39 293 -0.0
2019-Dec-06 12:34 293 -0.0
2019-Dec-06 12:29 293 -0.0
2019-Dec-06 12:23 293 -0.6
2019-Dec-06 12:18 293 -0.6
2019-Dec-06 12:13 293 -0.6
2019-Dec-06 12:08 293 -0.6
2019-Dec-06 12:03 293 -0.6
2019-Dec-06 11:58 293 -0.6
2019-Dec-06 11:53 293 -1.1
2019-Dec-06 11:48 293 -1.1
2019-Dec-06 11:43 293 -1.1
2019-Dec-06 11:37 293 -1.1
2019-Dec-06 11:32 293 -1.1
2019-Dec-06 11:27 293 -1.1
2019-Dec-06 11:22 293 -1.1
2019-Dec-06 11:17 293 -1.7
2019-Dec-06 11:12 293 -1.7
2019-Dec-06 11:07 293 -1.7
2019-Dec-06 11:02 293 -1.7
2019-Dec-06 10:57 293 -1.7
2019-Dec-06 10:51 293 -1.7
2019-Dec-06 10:46 293 -1.7
2019-Dec-06 10:41 293 -1.7
2019-Dec-06 10:36 293 -1.1
2019-Dec-06 10:31 293 -1.7
2019-Dec-06 10:26 293 -1.7
2019-Dec-06 10:21 293 -1.7
2019-Dec-06 10:15 293 -1.7
2019-Dec-06 10:10 293 -1.1
2019-Dec-06 10:05 293 -1.1
2019-Dec-06 10:00 304 -1.7
2019-Dec-06 09:54 304 -1.1
2019-Dec-06 09:49 304 -1.1
2019-Dec-06 09:44 304 -1.1
2019-Dec-06 09:39 304 -1.1
2019-Dec-06 09:34 304 -1.7
2019-Dec-06 09:29 304 -1.7
2019-Dec-06 09:23 304 -1.7
2019-Dec-06 09:18 304 -1.7
2019-Dec-06 09:13 304 -1.1
2019-Dec-06 09:08 304 -1.1
2019-Dec-06 09:03 304 -1.1
2019-Dec-06 08:58 304 -1.1
2019-Dec-06 08:53 304 -1.7
2019-Dec-06 08:48 304 -1.7
2019-Dec-06 08:43 304 -1.1
2019-Dec-06 08:37 304 -1.1
2019-Dec-06 08:32 304 -1.1
2019-Dec-06 08:27 304 -1.1
2019-Dec-06 08:22 304 -1.1
2019-Dec-06 08:16 304 -0.6
2019-Dec-06 08:11 304 -0.6
2019-Dec-06 08:06 304 -1.1
2019-Dec-06 08:01 304 -0.6
2019-Dec-06 07:56 304 -0.6
2019-Dec-06 07:51 304 -0.6
2019-Dec-06 07:46 304 -0.6
2019-Dec-06 07:40 304 -0.6
2019-Dec-06 07:35 304 -0.6
2019-Dec-06 07:30 304 0 gusting 1 -0.6
2019-Dec-06 07:25 304 -0.6
2019-Dec-06 07:20 304 0 gusting 1 -0.6
2019-Dec-06 07:15 304 0 gusting 1 -0.0
2019-Dec-06 07:10 304 -0.0
2019-Dec-06 07:05 310 0 gusting 3 -0.0
2019-Dec-06 07:00 311 0 gusting 5 -0.0
2019-Dec-06 06:54 292 0 gusting 5 0.6
2019-Dec-06 06:49 266 1 gusting 4 0.6
2019-Dec-06 06:44 275 1 gusting 4 1.1
2019-Dec-06 06:39 285 1 gusting 3 1.1
2019-Dec-06 06:34 310 1 gusting 5 1.1
2019-Dec-06 06:29 263 1 gusting 5 1.1
2019-Dec-06 06:24 285 1 gusting 6 1.1
2019-Dec-06 06:19 262 1 gusting 6 1.1
2019-Dec-06 06:14 303 1 gusting 5 1.1
2019-Dec-06 06:09 280 1 gusting 4 1.1
2019-Dec-06 06:04 297 2 gusting 5 1.1
2019-Dec-06 05:59 287 2 gusting 5 1.1
2019-Dec-06 05:54 281 1 gusting 6 1.1
2019-Dec-06 05:49 329 1 gusting 6 1.1
2019-Dec-06 05:44 281 1 gusting 6 1.1
2019-Dec-06 05:39 289 1 gusting 6 1.7
2019-Dec-06 05:34 273 1 gusting 6 1.7
2019-Dec-06 05:29 319 1 gusting 4 1.7
2019-Dec-06 05:24 206 1 gusting 6 1.7
2019-Dec-06 05:18 310 2 gusting 6 1.7
2019-Dec-06 05:13 317 2 gusting 6 1.7
2019-Dec-06 05:08 289 2 gusting 6 1.7
2019-Dec-06 05:03 278 2 gusting 6 1.7
2019-Dec-06 04:58 257 2 gusting 6 1.7
2019-Dec-06 04:53 297 2 gusting 6 1.7
2019-Dec-06 04:48 259 2 gusting 6 1.7
2019-Dec-06 04:43 297 2 gusting 6 1.7
2019-Dec-06 04:38 317 2 gusting 6 2.2
2019-Dec-06 04:33 239 2 gusting 6 2.2
2019-Dec-06 04:27 277 2 gusting 6 2.2
2019-Dec-06 04:22 298 2 gusting 6 2.2
2019-Dec-06 04:17 302 2 gusting 5 2.2
2019-Dec-06 04:12 245 3 gusting 6 2.2
2019-Dec-06 04:07 279 3 gusting 6 2.8
2019-Dec-06 04:02 284 3 gusting 9 2.8
2019-Dec-06 03:57 282 3 gusting 10 2.8
2019-Dec-06 03:52 266 4 gusting 13 2.8
2019-Dec-06 03:47 265 5 gusting 13 2.8
2019-Dec-06 03:42 270 4 gusting 11 2.8
2019-Dec-06 03:37 322 4 gusting 10 2.2
2019-Dec-06 03:32 259 3 gusting 10 2.2
2019-Dec-06 03:27 283 3 gusting 9 2.2
2019-Dec-06 03:22 271 3 gusting 6 2.2
2019-Dec-06 03:17 314 4 gusting 12 2.8
2019-Dec-06 03:12 302 3 gusting 12 2.2
2019-Dec-06 03:07 284 2 gusting 10 2.2
2019-Dec-06 03:02 256 3 gusting 10 2.2
2019-Dec-06 02:57 264 4 gusting 9 2.2
2019-Dec-06 02:52 250 3 gusting 9 2.2
2019-Dec-06 02:47 283 2 gusting 7 2.2
2019-Dec-06 02:42 256 3 gusting 9 2.2
2019-Dec-06 02:37 270 3 gusting 9 2.2
2019-Dec-06 02:32 302 3 gusting 9 2.2
2019-Dec-06 02:27 294 3 gusting 7 2.2
2019-Dec-06 02:22 281 3 gusting 11 2.8
2019-Dec-06 02:17 266 4 gusting 11 2.8
2019-Dec-06 02:12 293 3 gusting 11 2.8
2019-Dec-06 02:07 241 3 gusting 13 2.8
2019-Dec-06 02:02 290 3 gusting 13 2.8
2019-Dec-06 01:57 275 3 gusting 6 2.8
2019-Dec-06 01:52 331 3 gusting 7 2.8
2019-Dec-06 01:47 250 3 gusting 7 2.8
2019-Dec-06 01:42 282 4 gusting 13 2.8
2019-Dec-06 01:37 318 3 gusting 13 2.8
2019-Dec-06 01:32 266 3 gusting 10 2.8
2019-Dec-06 01:27 279 3 gusting 9 3.3
2019-Dec-06 01:22 296 2 gusting 6 3.3
2019-Dec-06 01:17 278 3 gusting 10 3.3
2019-Dec-06 01:12 269 3 gusting 10 3.3
2019-Dec-06 01:06 285 3 gusting 10 3.3
2019-Dec-06 01:02 284 3 gusting 7 3.3
2019-Dec-06 00:56 279 3 gusting 6 3.3
2019-Dec-06 00:51 260 2 gusting 6 3.3
2019-Dec-06 00:46 308 2 gusting 6 3.3
2019-Dec-06 00:41 282 2 gusting 6 3.3
2019-Dec-06 00:36 342 2 gusting 7 3.3
2019-Dec-06 00:31 280 2 gusting 9 3.3
2019-Dec-06 00:26 271 3 gusting 9 3.3
2019-Dec-06 00:21 298 2 gusting 6 3.3
2019-Dec-06 00:16 313 1 gusting 6 3.3
2019-Dec-06 00:11 275 1 gusting 5 3.3
2019-Dec-06 00:06 300 1 gusting 5 3.3
2019-Dec-06 00:01 237 1 gusting 4 3.3
2019-Dec-05 23:56 296 2 gusting 6 3.9
2019-Dec-05 23:51 270 2 gusting 6 3.9
2019-Dec-05 23:46 284 2 gusting 6 3.3
2019-Dec-05 23:41 331 2 gusting 6 3.3
2019-Dec-05 23:35 295 1 gusting 6 3.3
2019-Dec-05 23:30 288 2 gusting 6 3.3
2019-Dec-05 23:25 268 2 gusting 6 3.3
2019-Dec-05 23:20 296 2 gusting 6 3.9
2019-Dec-05 23:15 302 3 gusting 10 3.9
2019-Dec-05 23:10 302 3 gusting 13 3.9
2019-Dec-05 23:05 270 3 gusting 13 3.9
2019-Dec-05 23:00 284 4 gusting 10 3.9
2019-Dec-05 22:55 277 3 gusting 10 3.9
2019-Dec-05 22:50 297 2 gusting 9 3.3
2019-Dec-05 22:45 280 2 gusting 6 3.3
2019-Dec-05 22:40 264 2 gusting 6 3.3
2019-Dec-05 22:35 239 1 gusting 9 3.3
2019-Dec-05 22:30 310 1 gusting 9 3.3
2019-Dec-05 22:25 299 2 gusting 6 3.9
2019-Dec-05 22:20 293 3 gusting 7 3.9
2019-Dec-05 22:15 304 3 gusting 7 4.4
2019-Dec-05 22:10 256 2 gusting 6 4.4
2019-Dec-05 22:05 281 1 gusting 6 3.9
2019-Dec-05 22:00 250 2 gusting 5 4.4
2019-Dec-05 21:55 265 2 gusting 5 4.4
2019-Dec-05 21:49 277 2 gusting 6 3.9
2019-Dec-05 21:44 283 2 gusting 6 4.4
2019-Dec-05 21:39 287 2 gusting 7 4.4
2019-Dec-05 21:34 244 3 gusting 11 4.4
2019-Dec-05 21:29 277 3 gusting 11 4.4
2019-Dec-05 21:24 270 3 gusting 9 4.4
2019-Dec-05 21:19 279 3 gusting 9 4.4
2019-Dec-05 21:14 284 3 gusting 7 4.4
2019-Dec-05 21:09 296 2 gusting 6 4.4
2019-Dec-05 21:04 304 2 gusting 7 4.4
2019-Dec-05 20:59 271 3 gusting 7 4.4
2019-Dec-05 20:54 239 2 gusting 6 4.4
2019-Dec-05 20:49 259 2 gusting 6 4.4
2019-Dec-05 20:44 261 3 gusting 9 5.0
2019-Dec-05 20:39 319 3 gusting 9 5.0
2019-Dec-05 20:34 295 3 gusting 8 5.0
2019-Dec-05 20:29 007 3 gusting 9 5.0
2019-Dec-05 20:23 287 3 gusting 9 5.0
2019-Dec-05 20:18 275 3 gusting 6 5.0
2019-Dec-05 20:13 293 4 gusting 8 5.6
2019-Dec-05 20:08 271 4 gusting 8 5.6
2019-Dec-05 20:03 268 4 gusting 12 5.6
2019-Dec-05 19:58 306 3 gusting 12 5.6
2019-Dec-05 19:53 259 3 gusting 6 5.0
2019-Dec-05 19:48 308 3 gusting 7 5.6
2019-Dec-05 19:43 255 3 gusting 7 5.6
2019-Dec-05 19:38 329 4 gusting 9 5.6
2019-Dec-05 19:33 250 4 gusting 9 5.6
2019-Dec-05 19:28 279 3 gusting 7 5.6
2019-Dec-05 19:23 272 3 gusting 10 5.6
2019-Dec-05 19:18 297 4 gusting 15 5.6
2019-Dec-05 19:13 268 5 gusting 15 5.6
2019-Dec-05 19:08 324 5 gusting 12 5.6
2019-Dec-05 19:03 277 4 gusting 10 5.6
2019-Dec-05 18:58 117 4 gusting 10 5.6
2019-Dec-05 18:53 300 4 gusting 11 5.6
2019-Dec-05 18:48 290 5 gusting 13 5.6
2019-Dec-05 18:43 304 4 gusting 13 5.6
2019-Dec-05 18:38 331 3 gusting 13 5.6
2019-Dec-05 18:33 237 4 gusting 13 5.6
2019-Dec-05 18:28 281 5 gusting 16 5.6
2019-Dec-05 18:23 310 5 gusting 16 5.6
2019-Dec-05 18:18 352 5 gusting 12 5.6
2019-Dec-05 18:13 274 5 gusting 12 5.6
2019-Dec-05 18:08 318 6 gusting 13 5.6
2019-Dec-05 18:03 287 6 gusting 13 5.6
2019-Dec-05 17:58 271 5 gusting 13 5.6
2019-Dec-05 17:53 281 4 gusting 10 5.6
2019-Dec-05 17:48 288 4 gusting 13 5.6
2019-Dec-05 17:42 296 4 gusting 13 5.6
2019-Dec-05 17:37 261 4 gusting 13 6.1
2019-Dec-05 17:32 308 4 gusting 13 6.1
2019-Dec-05 17:27 285 5 gusting 13 6.7
2019-Dec-05 17:22 322 4 gusting 11 6.7
2019-Dec-05 17:17 255 4 gusting 11 7.2
2019-Dec-05 17:12 252 4 gusting 10 7.2
2019-Dec-05 17:07 247 4 gusting 10 6.7
2019-Dec-05 17:02 264 4 gusting 8 7.2
2019-Dec-05 16:57 004 4 gusting 7 6.7
2019-Dec-05 16:52 291 3 gusting 7 6.7
2019-Dec-05 16:47 275 4 gusting 11 6.1
2019-Dec-05 16:42 297 4 gusting 11 6.1
2019-Dec-05 16:37 265 4 gusting 11 6.1
2019-Dec-05 16:32 285 4 gusting 11 6.7
2019-Dec-05 16:27 314 4 gusting 8 6.7
2019-Dec-05 16:22 284 5 gusting 9 6.1
2019-Dec-05 16:17 299 4 gusting 9 6.1
2019-Dec-05 16:12 286 3 gusting 8 6.1
2019-Dec-05 16:07 252 3 gusting 8 6.7
2019-Dec-05 16:02 277 4 gusting 9 6.7
2019-Dec-05 15:57 289 5 gusting 9 6.7
2019-Dec-05 15:52 285 4 gusting 8 6.7
2019-Dec-05 15:47 252 3 gusting 9 6.7
2019-Dec-05 15:42 274 4 gusting 9 6.7
2019-Dec-05 15:37 281 4 gusting 7 6.7
2019-Dec-05 15:32 266 4 gusting 7 6.7
2019-Dec-05 15:27 273 4 gusting 6 6.7
2019-Dec-05 15:22 308 4 gusting 7 6.7
2019-Dec-05 15:16 255 4 gusting 12 6.7
2019-Dec-05 15:11 290 3 gusting 12 6.7
2019-Dec-05 15:06 265 3 gusting 11 7.2
2019-Dec-05 15:01 290 3 gusting 6 6.7
2019-Dec-05 14:56 289 2 gusting 6 6.7
2019-Dec-05 14:51 258 2 gusting 5 6.7
2019-Dec-05 14:46 266 2 gusting 6 6.7
2019-Dec-05 14:41 266 3 gusting 7 6.1
2019-Dec-05 14:36 305 3 gusting 7 6.1
2019-Dec-05 14:31 254 3 gusting 6 6.1
2019-Dec-05 14:26 275 2 gusting 6 6.1
2019-Dec-05 14:21 281 3 gusting 9 6.1
2019-Dec-05 14:16 236 3 gusting 9 5.6
2019-Dec-05 14:11 271 2 gusting 6 5.0
2019-Dec-05 14:06 298 2 gusting 6 5.0
2019-Dec-05 14:01 273 2 gusting 5 4.4
2019-Dec-05 13:56 265 2 gusting 7 4.4
2019-Dec-05 13:51 299 2 gusting 7 3.9
2019-Dec-05 13:46 267 2 gusting 5 3.9
2019-Dec-05 13:40 295 2 gusting 6 3.9
2019-Dec-05 13:35 273 2 gusting 6 4.4
2019-Dec-05 13:30 264 1 gusting 6 3.9
2019-Dec-05 13:25 318 1 gusting 6 3.3
2019-Dec-05 13:20 286 0 gusting 3 2.8
2019-Dec-05 13:15 274 0 gusting 3 2.2
2019-Dec-05 13:10 280 0 gusting 3 1.7
2019-Dec-05 13:05 287 0 gusting 3 1.7
2019-Dec-05 13:00 312 0 gusting 4 1.7
2019-Dec-05 12:55 306 0 gusting 4 1.1
2019-Dec-05 12:50 262 0 gusting 3 1.1
2019-Dec-05 12:45 284 0 gusting 3 0.6
2019-Dec-05 12:40 284 0 gusting 1 0.6
2019-Dec-05 12:35 282 0 gusting 1 0.6
2019-Dec-05 12:30 282 0 gusting 1 0.6
2019-Dec-05 12:25 279 0 gusting 1 0.6
2019-Dec-05 12:20 310 0 gusting 1 0.6
2019-Dec-05 12:15 296 0 gusting 1 0.6
2019-Dec-05 12:09 296 0 gusting 3 0.6
2019-Dec-05 12:04 275 0 gusting 1 0.6
2019-Dec-05 11:59 287 0 gusting 1 0.6
2019-Dec-05 11:54 287 0 gusting 3 0.6
2019-Dec-05 11:49 280 0 gusting 3 0.6
2019-Dec-05 11:44 273 0 gusting 3 1.1
2019-Dec-05 11:39 273 0 gusting 3 0.6
2019-Dec-05 11:34 271 0 gusting 3 0.6
2019-Dec-05 11:29 319 0 gusting 1 0.6
2019-Dec-05 11:24 323 0 gusting 5 0.6
2019-Dec-05 11:19 325 0 gusting 5 0.6
2019-Dec-05 11:14 302 0 gusting 3 0.6
2019-Dec-05 11:08 302 0 gusting 4 0.6
2019-Dec-05 11:03 291 0 gusting 4 0.6
2019-Dec-05 10:58 263 0 gusting 1 0.6
2019-Dec-05 10:53 263 0 gusting 1 0.6
2019-Dec-05 10:48 289 0 gusting 1 -0.0
2019-Dec-05 10:43 289 0 gusting 1 -0.0
2019-Dec-05 10:38 289 0 gusting 1 -0.6
2019-Dec-05 10:33 289 -0.6
2019-Dec-05 10:27 244 -0.6
2019-Dec-05 10:22 244 -0.6
2019-Dec-05 10:17 244 -0.6
2019-Dec-05 10:12 244 -0.6
2019-Dec-05 10:07 244 -0.6
2019-Dec-05 10:02 244 -0.6
2019-Dec-05 09:57 244 -0.6
2019-Dec-05 09:52 244 -0.6
2019-Dec-05 09:47 244 -0.0
2019-Dec-05 09:42 244 -0.0
2019-Dec-05 09:37 244 -0.0
2019-Dec-05 09:31 244 0 gusting 1 -0.6
2019-Dec-05 09:26 244 0 gusting 1 -0.6
2019-Dec-05 09:21 244 0 gusting 1 -0.6
2019-Dec-05 09:16 244 0 gusting 1 -0.6
2019-Dec-05 09:11 244 0 gusting 1 -0.6
2019-Dec-05 09:06 244 -0.6
2019-Dec-05 09:01 244 -0.6